CW5629 Weather Reports


Display with metric or nautical units.
time (UTC)temp
F
wind
direction
speed
MPH
gust
MPH
rain 1hr
in
rain 24hr
in
rain mn
in
humidity
%
barometer
mb
20210415114636 54 222 1.0 5.0 0.00 0.04 0.00 52 1032.4
20210415114154 53 217 0.0 5.0 0.00 0.04 0.00 53 1032.4
20210415113629 52 181 1.0 5.0 0.00 0.04 0.00 52 1032.3
20210415113111 53 123 0.0 3.0 0.00 0.04 0.00 53 1032.6
20210415111918 52 210 0.0 3.0 0.00 0.04 0.00 51 1032.5
20210415111139 52 212 0.0 2.0 0.00 0.04 0.00 53 1032.6
20210415110631 52 223 0.0 2.0 0.00 0.04 0.00 53 1032.6
20210415110114 52 228 0.0 2.0 0.00 0.04 0.00 54 1032.6
20210415105902 50 219 1.0 2.0 0.00 0.04 0.00 58 1032.8
20210415104707 49 130 0.0 2.0 0.00 0.04 0.00 60 1032.8
20210415104137 48 203 0.0 3.0 0.00 0.04 0.00 60 1032.8
20210415103630 48 152 0.0 3.0 0.00 0.04 0.00 60 1033.0
20210415103521 48 152 0.0 3.0 0.00 0.04 0.00 58 1033.0
20210415102716 48 210 0.0 2.0 0.00 0.04 0.00 59 1033.0
20210415101706 48 213 0.0 4.0 0.00 0.04 0.00 59 1033.0
20210415101119 48 229 1.0 4.0 0.00 0.04 0.00 58 1033.0
20210415100636 48 206 0.0 2.0 0.00 0.04 0.00 59 1033.0
20210415100123 49 221 0.0 2.0 0.00 0.04 0.00 57 1033.0
20210415100053 49 199 0.0 2.0 0.00 0.04 0.00 57 1033.0
20210415095410 49 256 0.0 2.0 0.00 0.04 0.00 58 1033.0
20210415094138 49 234 0.0 2.0 0.00 0.04 0.00 59 1032.9
20210415093630 48 176 0.0 2.0 0.00 0.04 0.00 60 1032.9
20210415093256 49 220 0.0 2.0 0.00 0.04 0.00 59 1032.9
20210415093034 49 209 0.0 2.0 0.00 0.04 0.00 58 1032.9
20210415091622 50 92 0.0 2.0 0.00 0.04 0.00 58 1032.8
20210415091134 50 219 0.0 3.0 0.00 0.04 0.00 59 1032.8
20210415090620 49 247 0.0 3.0 0.00 0.04 0.00 59 1032.8
20210415090156 49 223 0.0 2.0 0.00 0.04 0.00 62 1032.9
20210415085911 49 211 0.0 2.0 0.00 0.04 0.00 62 1032.9
20210415084750 48 241 0.0 2.0 0.00 0.04 0.00 64 1032.9
20210415084135 48 214 0.0 2.0 0.00 0.04 0.00 64 1032.9
20210415083727 47 196 0.0 2.0 0.00 0.04 0.00 65 1032.9
20210415083437 47 229 0.0 2.0 0.00 0.04 0.00 64 1032.8
20210415083127 47 226 0.0 1.0 0.00 0.04 0.00 65 1033.0
20210415082827 46 126 0.0 1.0 0.00 0.04 0.00 66 1032.9
20210415081732 46 232 0.0 1.0 0.00 0.04 0.00 67 1032.9
20210415081119 45 236 0.0 2.0 0.00 0.04 0.00 68 1032.9
20210415080653 45 226 0.0 3.0 0.00 0.04 0.00 68 1033.0
20210415080101 43 231 1.0 3.0 0.00 0.04 0.00 71 1033.0
20210415074628 42 331 0.0 1.0 0.00 0.04 0.00 73 1033.0
20210415074114 42 195 0.0 2.0 0.00 0.04 0.00 73 1032.9
20210415073616 41 102 0.0 2.0 0.00 0.04 0.00 74 1033.0
20210415073132 41 208 0.0 2.0 0.00 0.04 0.00 75 1033.0
20210415072919 40 158 0.0 1.0 0.00 0.04 0.00 76 1033.0
20210415072620 40 210 0.0 1.0 0.00 0.04 0.00 77 1033.1
20210415071523 39 202 0.0 1.0 0.00 0.04 0.00 79 1033.0
20210415070930 39 206 0.0 1.0 0.00 0.04 0.00 80 1033.0
20210415070255 38 176 0.0 1.0 0.00 0.04 0.00 81 1032.9
20210415070011 38 174 0.0 1.0 0.00 0.04 0.00 83 1032.9
20210415065614 37 230 0.0 1.0 0.00 0.04 0.00 85 1032.8
20210415064627 36 265 0.0 1.0 0.00 0.04 0.00 87 1032.8
20210415064127 36 219 0.0 1.0 0.00 0.04 0.00 89 1032.8
20210415063626 35 184 0.0 1.0 0.00 0.04 0.00 91 1032.8
20210415063217 34 269 0.0 1.0 0.00 0.04 0.00 93 1032.8
20210415063038 33 237 0.0 0.0 0.00 0.04 0.00 94 1032.8
20210415062711 33 240 0.0 1.0 0.00 0.04 0.00 94 1032.8
20210415061635 33 240 0.0 1.0 0.00 0.04 0.00 94 1032.8
20210415061124 32 240 0.0 0.0 0.00 0.04 0.00 94 1032.8
20210415060625 32 240 0.0 0.0 0.00 0.04 0.00 94 1032.7
20210415060134 32 240 0.0 0.0 0.00 0.04 0.00 94 1032.5
20210415055840 32 240 0.0 0.0 0.00 0.04 0.00 94 1032.6
20210415055431 31 240 0.0 0.0 0.00 0.04 0.00 94 1032.5
20210415054621 31 240 0.0 0.0 0.00 0.04 0.00 93 1032.5
20210415054120 31 240 0.0 0.0 0.00 0.04 0.00 93 1032.6
20210415053621 32 240 0.0 0.0 0.00 0.04 0.00 93 1032.5
20210415053221 31 240 0.0 0.0 0.00 0.04 0.00 93 1032.6
20210415052701 32 240 0.0 0.0 0.00 0.04 0.00 93 1032.5
20210415051645 32 240 0.0 0.0 0.00 0.04 0.00 93 1032.4
20210415051121 32 240 0.0 0.0 0.00 0.04 0.00 93 1032.4
20210415050648 32 240 0.0 0.0 0.00 0.04 0.00 93 1032.3
20210415050130 32 240 0.0 0.0 0.00 0.04 0.00 93 1032.3
20210415045857 32 240 0.0 0.0 0.00 0.04 0.00 93 1032.3
20210415045543 32 240 0.0 0.0 0.00 0.04 0.00 93 1032.3
20210415044618 32 240 0.0 0.0 0.00 0.04 0.00 93 1032.3
20210415044129 32 240 0.0 0.0 0.00 0.04 0.00 93 1032.2
20210415043623 32 240 0.0 0.0 0.00 0.04 0.00 93 1032.3
20210415043148 32 240 0.0 0.0 0.00 0.04 0.00 92 1032.2
20210415042827 32 240 0.0 0.0 0.00 0.04 0.00 92 1032.2
20210415041637 32 240 0.0 0.0 0.00 0.04 0.00 92 1032.2
20210415041137 32 240 0.0 0.0 0.00 0.04 0.00 92 1032.2
20210415040617 33 240 0.0 0.0 0.00 0.04 0.00 91 1032.2
20210415040121 33 240 0.0 0.0 0.00 0.04 0.00 92 1032.2
20210415035910 33 240 0.0 0.0 0.00 0.04 0.00 92 1032.2
20210415035632 33 240 0.0 0.0 0.00 0.04 0.00 91 1032.2
20210415034631 34 240 0.0 0.0 0.00 0.04 0.00 91 1032.1
20210415034131 34 240 0.0 0.0 0.00 0.04 0.00 91 1032.0
20210415033628 34 240 0.0 0.0 0.00 0.04 0.00 91 1032.0
20210415033136 35 240 0.0 0.0 0.00 0.04 0.00 92 1032.1
20210415032819 35 240 0.0 0.0 0.00 0.04 0.00 92 1032.1
20210415032426 34 241 0.0 0.0 0.00 0.04 0.00 91 1032.1
20210415031625 35 241 0.0 0.0 0.00 0.04 0.00 90 1032.1
20210415031127 35 241 0.0 0.0 0.00 0.04 0.00 90 1032.1
20210415030631 35 241 0.0 0.0 0.00 0.04 0.00 90 1032.1
20210415030138 35 241 0.0 0.0 0.00 0.04 0.00 90 1032.2
20210415025721 35 241 0.0 0.0 0.00 0.04 0.00 89 1032.1
20210415024626 36 241 0.0 0.0 0.00 0.04 0.00 89 1032.1
20210415024126 36 240 0.0 0.0 0.00 0.04 0.00 89 1032.1
20210415023626 36 241 0.0 0.0 0.00 0.04 0.00 89 1032.1
20210415023110 37 241 0.0 0.0 0.00 0.04 0.00 89 1032.1
20210415022758 37 241 0.0 0.0 0.00 0.04 0.00 89 1032.1
20210415022353 37 241 0.0 0.0 0.00 0.04 0.00 89 1032.1
20210415021634 37 241 0.0 0.0 0.00 0.04 0.00 89 1032.1
20210415021152 37 241 0.0 0.0 0.00 0.04 0.00 89 1032.0
20210415020647 38 241 0.0 0.0 0.00 0.04 0.00 89 1032.0
20210415020241 38 240 0.0 0.0 0.00 0.04 0.00 88 1032.0
20210415015936 38 241 0.0 0.0 0.00 0.04 0.00 87 1032.0
20210415014702 38 241 0.0 0.0 0.00 0.04 0.00 87 1032.0
20210415014120 38 241 0.0 0.0 0.00 0.04 0.00 87 1032.0
20210415013637 39 241 0.0 0.0 0.00 0.04 0.00 86 1032.0
20210415013137 40 241 0.0 0.0 0.00 0.04 0.00 85 1032.1
20210415011655 40 241 0.0 0.0 0.00 0.04 0.00 85 1032.1
20210415011122 40 241 0.0 0.0 0.00 0.04 0.00 85 1032.2
20210415010717 40 241 0.0 1.0 0.00 0.04 0.00 84 1032.2
20210415010146 40 241 0.0 1.0 0.00 0.04 0.00 84 1032.2
20210415005835 40 247 0.0 0.0 0.00 0.04 0.00 85 1032.1
20210415004639 39 247 0.0 0.0 0.00 0.04 0.00 84 1032.1
20210415004120 39 247 0.0 0.0 0.00 0.04 0.00 85 1032.2
20210415003619 39 247 0.0 0.0 0.00 0.04 0.00 85 1032.1
20210415003055 38 248 0.0 0.0 0.00 0.04 0.00 84 1032.1
20210415002458 38 247 0.0 0.0 0.00 0.04 0.00 84 1032.1
20210415001349 38 247 0.0 0.0 0.00 0.04 0.00 84 1032.0
20210415001035 38 247 0.0 0.0 0.00 0.04 0.00 84 1032.0
20210415000701 38 247 0.0 0.0 0.00 0.04 0.00 85 1032.0
20210415000142 38 247 0.0 0.0 0.00 0.04 0.00 84 1032.0
20210414235914 38 247 0.0 0.0 0.00 0.04 0.00 84 1032.0
20210414234635 38 247 0.0 0.0 0.00 0.04 0.00 84 1032.0
20210414234309 38 247 0.0 0.0 0.00 0.04 0.00 84 1032.0
20210414233658 38 247 0.0 0.0 0.00 0.04 0.00 83 1031.9
20210414233226 38 247 0.0 0.0 0.00 0.04 0.00 83 1031.9
20210414232918 39 247 0.0 0.0 0.00 0.04 0.00 83 1031.9
20210414232544 39 247 0.0 0.0 0.00 0.04 0.00 83 1031.9
20210414231621 39 247 0.0 0.0 0.00 0.04 0.00 83 1031.8
20210414231120 39 248 0.0 0.0 0.00 0.04 0.01 84 1031.7
20210414230654 39 247 0.0 0.0 0.00 0.04 0.01 84 1031.7
20210414230157 39 247 0.0 0.0 0.00 0.04 0.01 84 1031.7
20210414225920 40 247 0.0 0.0 0.00 0.04 0.01 84 1031.6
20210414225712 40 247 0.0 0.0 0.00 0.04 0.01 84 1031.5
20210414224645 40 247 0.0 0.0 0.00 0.04 0.01 84 1031.5
20210414224117 40 247 0.0 0.0 0.00 0.04 0.01 85 1031.5
20210414223638 40 247 0.0 0.0 0.00 0.04 0.01 86 1031.5
20210414223120 40 247 0.0 0.0 0.00 0.04 0.01 87 1031.5
20210414222857 40 247 0.0 0.0 0.00 0.04 0.01 87 1031.5
20210414222457 41 248 0.0 0.0 0.00 0.04 0.01 88 1031.4
20210414221640 41 248 0.0 0.0 0.00 0.04 0.01 88 1031.4
20210414221130 41 248 0.0 0.0 0.00 0.04 0.01 87 1031.4
20210414220635 41 248 0.0 0.0 0.00 0.04 0.01 87 1031.4
20210414220135 42 248 0.0 0.0 0.00 0.04 0.01 87 1031.4
20210414215850 42 248 0.0 0.0 0.00 0.04 0.01 87 1031.3
20210414215253 42 248 0.0 0.0 0.00 0.04 0.01 86 1031.3
20210414214621 43 248 0.0 0.0 0.00 0.04 0.01 86 1031.3
20210414214140 43 248 0.0 0.0 0.00 0.04 0.01 86 1031.3
20210414213626 43 248 0.0 0.0 0.00 0.04 0.01 85 1031.2
20210414213131 44 248 0.0 0.0 0.00 0.04 0.01 85 1031.2
20210414212959 44 248 0.0 0.0 0.00 0.04 0.01 85 1031.3
20210414212854 44 248 0.0 0.0 0.00 0.04 0.01 85 1031.2
20210414211625 45 248 0.0 0.0 0.00 0.04 0.01 86 1031.1
20210414211118 45 248 0.0 0.0 0.00 0.04 0.01 85 1031.2
20210414210628 45 248 0.0 0.0 0.00 0.04 0.01 85 1031.2
20210414210127 45 248 0.0 0.0 0.00 0.04 0.01 86 1031.1
20210414205828 45 264 0.0 0.0 0.00 0.04 0.01 86 1031.2
20210414205414 45 264 0.0 0.0 0.00 0.04 0.01 86 1031.2
20210414204616 45 264 0.0 0.0 0.00 0.04 0.01 85 1031.2
20210414204115 45 264 0.0 0.0 0.00 0.04 0.01 85 1031.2
20210414203628 45 264 0.0 0.0 0.00 0.04 0.01 84 1031.2
20210414203126 45 264 0.0 0.0 0.00 0.04 0.01 83 1031.1
20210414202952 45 264 0.0 0.0 0.00 0.04 0.01 83 1031.1
20210414202720 45 264 0.0 0.0 0.00 0.04 0.01 81 1031.2
20210414201651 45 264 0.0 0.0 0.00 0.04 0.01 81 1031.0
20210414201131 46 264 0.0 0.0 0.00 0.04 0.01 79 1031.1
20210414200617 46 265 0.0 0.0 0.00 0.04 0.01 80 1031.0
20210414200141 46 264 0.0 0.0 0.00 0.04 0.01 79 1030.9
20210414195857 46 264 0.0 0.0 0.00 0.04 0.01 78 1030.9
20210414195526 46 264 0.0 0.0 0.00 0.04 0.01 77 1030.8
20210414194628 46 264 0.0 0.0 0.00 0.04 0.01 76 1030.8
20210414194207 46 264 0.0 0.0 0.00 0.04 0.01 76 1030.8
20210414193633 46 265 0.0 0.0 0.00 0.04 0.01 75 1030.7
20210414193132 47 264 0.0 0.0 0.00 0.04 0.01 74 1030.7
20210414192916 47 264 0.0 0.0 0.00 0.04 0.01 73 1030.6
20210414192335 47 264 0.0 0.0 0.00 0.04 0.01 72 1030.6
20210414191616 47 264 0.0 0.0 0.00 0.04 0.01 72 1030.6
20210414191118 48 264 0.0 0.0 0.00 0.04 0.01 71 1030.5
20210414190628 48 264 0.0 0.0 0.00 0.04 0.01 71 1030.4
20210414190221 48 264 0.0 0.0 0.00 0.04 0.01 70 1030.4
20210414185935 49 264 0.0 0.0 0.00 0.04 0.01 70 1030.3
20210414185542 49 264 0.0 0.0 0.00 0.04 0.01 70 1030.3
20210414184657 49 265 0.0 0.0 0.00 0.04 0.01 69 1030.2
20210414184145 50 264 0.0 0.0 0.00 0.04 0.01 68 1030.2
20210414183656 50 264 0.0 0.0 0.00 0.04 0.01 68 1030.2
20210414183221 50 264 0.0 0.0 0.00 0.04 0.01 67 1030.2
20210414183019 51 264 0.0 0.0 0.00 0.04 0.01 67 1030.2
20210414182640 51 264 0.0 0.0 0.00 0.04 0.01 67 1030.1
20210414181645 51 265 0.0 0.0 0.00 0.04 0.01 66 1030.2
20210414181125 51 264 0.0 1.0 0.00 0.04 0.01 67 1030.1
20210414180643 52 264 0.0 1.0 0.00 0.04 0.01 67 1030.1
20210414180305 52 265 0.0 1.0 0.00 0.04 0.01 67 1030.2
20210414175933 52 268 0.0 1.0 0.00 0.04 0.01 67 1030.2
20210414175742 53 269 0.0 1.0 0.00 0.04 0.01 66 1030.2
20210414174628 53 284 0.0 1.0 0.00 0.04 0.01 66 1030.2
20210414174137 53 214 0.0 0.0 0.00 0.04 0.01 66 1030.2
20210414173616 53 214 0.0 0.0 0.00 0.04 0.01 67 1030.2
20210414173114 53 204 0.0 1.0 0.00 0.04 0.01 67 1030.2
20210414172908 53 143 0.0 1.0 0.00 0.04 0.01 66 1030.2
20210414172621 53 19 0.0 2.0 0.00 0.04 0.01 66 1030.3
20210414171632 53 186 0.0 2.0 0.00 0.04 0.01 64 1030.3
20210414171128 53 225 0.0 2.0 0.00 0.04 0.01 63 1030.3
20210414170726 53 218 0.0 2.0 0.00 0.04 0.01 62 1030.2
20210414170440 54 214 0.0 2.0 0.00 0.04 0.01 62 1030.2
20210414170049 54 184 0.0 2.0 0.00 0.04 0.01 62 1030.2
20210414165715 53 188 0.0 1.0 0.00 0.04 0.01 61 1030.2
20210414164636 54 212 0.0 1.0 0.00 0.04 0.01 60 1030.2
20210414164120 54 253 0.0 1.0 0.00 0.04 0.01 61 1030.2
20210414163629 55 210 0.0 1.0 0.00 0.04 0.01 60 1030.2
20210414163236 56 134 0.0 1.0 0.00 0.04 0.01 59 1030.2
20210414163044 56 208 0.0 1.0 0.00 0.04 0.01 57 1030.2
20210414162834 57 191 0.0 1.0 0.00 0.04 0.01 56 1030.2
20210414161636 58 224 0.0 1.0 0.00 0.04 0.01 55 1030.2
20210414161134 58 189 0.0 1.0 0.00 0.04 0.01 56 1030.3
20210414160639 57 205 0.0 1.0 0.00 0.04 0.01 58 1030.3
20210414160156 57 219 0.0 1.0 0.00 0.04 0.01 58 1030.3
20210414155928 57 241 0.0 1.0 0.00 0.04 0.01 61 1030.4
20210414155600 56 203 0.0 1.0 0.00 0.04 0.01 62 1030.5
20210414154633 55 204 0.0 0.0 0.00 0.04 0.01 64 1030.5
20210414154123 54 205 0.0 2.0 0.00 0.04 0.01 63 1030.5
20210414153632 55 175 0.0 2.0 0.00 0.04 0.01 61 1030.5
20210414153251 55 201 0.0 1.0 0.00 0.04 0.01 59 1030.5
20210414152949 55 201 0.0 2.0 0.00 0.04 0.01 60 1030.5
20210414152550 56 200 0.0 2.0 0.00 0.04 0.01 58 1030.5
20210414151623 56 237 0.0 1.0 0.00 0.04 0.01 59 1030.7
20210414151128 55 204 0.0 0.0 0.00 0.04 0.01 60 1030.7
20210414150628 55 176 0.0 1.0 0.00 0.04 0.01 61 1030.7
20210414150129 54 132 0.0 1.0 0.00 0.04 0.01 58 1030.8
20210414145928 54 210 0.0 0.0 0.00 0.04 0.01 60 1030.9
20210414145723 54 200 0.0 0.0 0.00 0.04 0.01 60 1030.9
20210414144649 54 213 0.0 2.0 0.00 0.04 0.01 59 1030.9
20210414144126 54 203 0.0 2.0 0.00 0.04 0.01 57 1030.9
20210414143634 55 181 0.0 1.0 0.00 0.04 0.01 59 1031.0
20210414143135 55 213 0.0 1.0 0.00 0.04 0.01 57 1031.0
20210414142854 56 338 0.0 1.0 0.00 0.04 0.01 57 1031.0
20210414142555 56 239 0.0 1.0 0.00 0.04 0.01 58 1031.1
20210414141617 57 200 0.0 1.0 0.00 0.04 0.01 57 1031.0
20210414141120 57 215 0.0 1.0 0.00 0.04 0.01 58 1031.0
20210414140622 58 199 0.0 2.0 0.04 0.04 0.01 58 1031.0
20210414140233 58 262 0.0 3.0 0.04 0.04 0.01 59 1031.0
20210414140027 58 188 1.0 3.0 0.04 0.04 0.01 58 1031.2
20210414135904 57 204 0.0 3.0 0.04 0.04 0.01 59 1031.2
20210414134639 56 162 0.0 1.0 0.04 0.04 0.01 66 1031.3
20210414134118 54 214 0.0 2.0 0.04 0.04 0.01 68 1031.3
20210414133627 53 189 0.0 2.0 0.04 0.04 0.01 70 1031.4
20210414133324 52 192 0.0 2.0 0.04 0.04 0.01 71 1031.4
20210414132954 52 220 0.0 2.0 0.04 0.04 0.01 72 1031.5
20210414132756 52 205 0.0 2.0 0.04 0.04 0.01 77 1031.5
20210414131635 52 196 0.0 2.0 0.04 0.04 0.01 76 1031.5
20210414131158 52 213 0.0 1.0 0.04 0.04 0.01 72 1031.5
20210414130937 53 191 0.0 1.0 0.00 0.00 0.00 70 1031.5
20210414130627 53 203 0.0 1.0 0.00 0.00 0.00 68 1031.5
20210414130222 53 209 0.0 1.0 0.00 0.00 0.00 67 1031.4
20210414125908 54 204 0.0 1.0 0.00 0.00 0.00 66 1031.4
20210414124615 55 231 0.0 1.0 0.00 0.00 0.00 61 1031.4
20210414124111 55 269 0.0 1.0 0.00 0.00 0.00 58 1031.3
20210414123615 56 274 0.0 2.0 0.00 0.00 0.00 55 1031.3
20210414123139 56 211 0.0 2.0 0.00 0.00 0.00 53 1031.2
20210414122913 57 17 0.0 1.0 0.00 0.00 0.00 53 1031.2
20210414122701 58 238 0.0 1.0 0.00 0.00 0.00 52 1031.2
20210414121625 59 314 0.0 0.0 0.00 0.00 0.00 52 1031.2
20210414121137 59 209 0.0 1.0 0.00 0.00 0.00 48 1031.2
20210414120623 60 190 0.0 1.0 0.00 0.00 0.00 47 1031.2
20210414120135 61 213 0.0 1.0 0.00 0.00 0.00 47 1031.2
20210414115815 61 215 0.0 2.0 0.00 0.00 0.00 51 1031.2
20210414115354 61 218 0.0 2.0 0.00 0.00 0.00 49 1031.2